EW8784 Weather Reports


Display with metric or nautical units.
time (UTC)temp
F
wind
direction
speed
MPH
gust
MPH
rain 1hr
in
rain 24hr
in
rain mn
in
humidity
%
barometer
mb
20260509173002 57 359 0.0 0.0 0.00 0.00 0.00 85 1021.7
20260509171506 57 359 0.0 0.0 0.00 0.00 0.00 95 1021.6
20260509170004 57 359 0.0 0.0 0.00 0.00 0.00 99 1021.5
20260509164505 57 359 0.0 0.0 0.00 0.00 0.00 100 1021.3
20260509163003 58 359 0.0 0.0 0.00 0.00 0.00 100 1021.2
20260509161507 58 359 0.0 0.0 0.00 0.00 0.00 100 1021.3
20260509160003 58 359 0.0 0.0 0.00 0.00 0.00 100 1021.0
20260509153008 59 359 0.0 0.0 0.00 0.00 0.00 100 1020.8
20260509151505 59 359 0.0 0.0 0.00 0.00 0.00 100 1020.9
20260509150003 59 359 0.0 0.0 0.00 0.00 0.00 100 1021.0
20260509144505 60 359 0.0 0.0 0.00 0.00 0.00 100 1020.8
20260509143003 60 359 0.0 0.0 0.00 0.00 0.00 99 1020.7
20260509141506 61 359 0.0 0.0 0.00 0.00 0.00 97 1020.5
20260509140005 61 359 0.0 0.0 0.00 0.00 0.00 96 1020.4
20260509134506 61 359 0.0 0.0 0.00 0.00 0.00 89 1020.3
20260509133004 62 359 0.0 0.0 0.00 0.00 0.00 83 1020.1
20260509131508 62 359 0.0 0.0 0.00 0.00 0.00 77 1020.0
20260509124506 63 359 0.0 0.0 0.00 0.00 0.00 68 1019.8
20260509123003 64 359 0.0 0.0 0.00 0.00 0.00 65 1019.6
20260509121507 64 359 0.0 0.0 0.00 0.00 0.00 63 1019.7
20260509120004 65 359 0.0 0.0 0.00 0.00 0.00 60 1019.7
20260509114505 66 359 0.0 0.0 0.00 0.00 0.00 56 1019.5
20260509111506 67 359 0.0 0.0 0.00 0.00 0.00 54 1019.1
20260509110004 67 359 0.0 0.0 0.00 0.00 0.00 54 1018.8
20260509104505 67 359 0.0 0.0 0.00 0.00 0.00 52 1018.6
20260509103002 67 359 0.0 0.0 0.00 0.00 0.00 51 1018.4
20260509101506 68 359 0.0 0.0 0.00 0.00 0.00 50 1018.1
20260509100004 68 359 0.0 0.0 0.00 0.00 0.00 48 1017.9
20260509094505 68 359 0.0 0.0 0.00 0.00 0.00 48 1017.9
20260509093003 68 359 0.0 2.0 0.00 0.00 0.00 49 1017.5
20260509091506 69 359 0.0 0.0 0.00 0.00 0.00 48 1017.3
20260509084504 70 359 0.0 0.0 0.00 0.00 0.00 47 1016.8
20260509083008 71 359 0.0 0.0 0.00 0.00 0.00 47 1016.5
20260509081505 71 359 0.0 0.0 0.00 0.00 0.00 48 1016.2
20260509080003 72 179 0.0 0.0 0.00 0.00 0.00 48 1016.0
20260509074505 72 179 0.0 0.0 0.00 0.00 0.00 48 1015.7
20260509071505 73 359 0.0 0.0 0.00 0.00 0.00 45 1015.1
20260509070003 75 349 0.0 0.0 0.00 0.00 0.00 41 1014.7
20260509064505 75 349 0.0 0.0 0.00 0.00 0.00 41 1014.5
20260509063008 74 349 0.0 0.0 0.00 0.00 0.00 43 1014.2
20260509054509 77 359 0.0 0.0 0.00 0.00 0.00 37 1013.9
20260509053006 77 359 0.0 0.0 0.00 0.00 0.00 37 1013.8
20260509051510 77 326 0.0 0.0 0.00 0.00 0.00 33 1013.9
20260509050007 78 326 0.0 0.0 0.00 0.00 0.00 32 1013.7
20260509044507 77 326 0.0 0.0 0.00 0.00 0.00 31 1013.7
20260509041503 77 65 0.0 0.0 0.00 0.00 0.00 30 1013.5
20260509040007 76 226 0.0 0.0 0.00 0.00 0.00 31 1013.6
20260509034506 76 93 0.0 0.0 0.00 0.00 0.00 31 1013.9
20260509031506 74 323 0.0 0.0 0.00 0.00 0.00 33 1013.7
20260509024512 74 323 0.0 0.0 0.00 0.00 0.00 32 1014.0
20260509023008 74 323 0.0 0.0 0.00 0.00 0.00 34 1014.0
20260509021505 73 323 0.0 0.0 0.00 0.00 0.00 32 1014.1
20260509020004 73 323 0.0 0.0 0.00 0.00 0.00 33 1014.2
20260509013007 74 323 0.0 0.0 0.00 0.00 0.00 29 1014.1
20260509011505 74 323 0.0 0.0 0.00 0.00 0.00 29 1014.0
20260509010008 73 323 0.0 0.0 0.00 0.00 0.00 28 1014.0
20260509003007 72 323 0.0 0.0 0.00 0.00 0.00 26 1013.5
20260509001504 73 323 0.0 0.0 0.00 0.00 0.00 26 1013.3
20260509000002 73 323 0.0 0.0 0.00 0.00 0.00 26 1013.2
20260508234506 72 323 0.0 0.0 0.00 0.00 0.00 26 1013.2
20260508233008 72 323 0.0 0.0 0.00 0.00 0.00 27 1013.1
20260508231505 71 323 0.0 0.0 0.00 0.00 0.00 27 1013.1
20260508230003 70 323 0.0 0.0 0.00 0.00 0.00 29 1012.9
20260508224506 69 323 0.0 0.0 0.00 0.00 0.00 30 1012.6
20260508223008 68 323 0.0 0.0 0.00 0.00 0.00 29 1012.5
20260508220003 66 323 0.0 0.0 0.00 0.00 0.00 37 1011.9
20260508214506 65 323 0.0 0.0 0.00 0.00 0.00 39 1011.7
20260508213008 65 323 0.0 0.0 0.00 0.00 0.00 39 1011.5
20260508211505 64 323 0.0 0.0 0.00 0.00 0.00 39 1011.1
20260508210003 64 323 0.0 0.0 0.00 0.00 0.00 42 1010.8
20260508204506 63 323 0.0 0.0 0.00 0.00 0.00 43 1010.4
20260508203008 64 323 0.0 0.0 0.00 0.00 0.00 42 1010.3
20260508201506 64 323 0.0 0.0 0.00 0.00 0.00 43 1010.0
20260508194506 65 323 0.0 0.0 0.00 0.00 0.00 42 1009.5
20260508193003 65 323 0.0 0.0 0.00 0.00 0.00 41 1009.2
20260508191506 65 323 0.0 0.0 0.00 0.00 0.00 40 1009.0
20260508183008 67 323 0.0 0.0 0.00 0.00 0.00 47 1008.0
20260508181505 67 323 0.0 0.0 0.00 0.00 0.00 45 1007.8
20260508180003 68 323 0.0 0.0 0.00 0.00 0.00 42 1007.4
20260508174507 68 323 0.0 0.0 0.00 0.00 0.00 46 1007.3